Location: Poughquag
(41.6090°N, 73.6820°W)
Time: 18:59:43
(UTC-04:00)

S-56A Canister/Altair - Pass Details

Date: 06 June 2020
Orbit: 633 x 2499 km, 38.9° (Epoch: 19 September)

Event Time Altitude Azimuth Distance (km) Brightness Sun altitude
Exits shadow 04:01:53 17° 229° (SW) 1,739 8.7 -12.3°
Maximum altitude 04:05:25 49° 160° (SSE) 1,045 8.0 -11.8°
Drops below altitude 10° 04:11:44 10° 87° (E) 2,891 11.2 -11.0°
Sets 04:15:05 0° 83° (E) 4,143 12.2 -10.6°
